Location: Saint-Hippolyte
(43.6394°N, 4.7559°E)
Time: 15:57:15
(UTC+00:00)

Cosmos 1486 Rocket - Pass Details

Date: 24 October 2020
Orbit: 758 x 784 km, 74.1° (Epoch: 23 November)

Event Time Altitude Azimuth Distance (km) Brightness Sun altitude
Rises 18:24:13 0° 342° (NNW) 3,283 7.5 -19.0°
Reaches altitude 10° 18:26:40 10° 347° (NNW) 2,351 6.7 -19.4°
Maximum altitude 18:31:56 58° 66° (ENE) 914 4.0 -20.4°
Enters shadow 18:33:46 38° 125° (SE) 1,184 4.5 -20.7°
